Location: Shell Point
(30.0571°N, 84.2896°W)
Time: 04:48:12
(UTC-04:00)

Meteor 2-19 Rocket - Visible Passes

Search period start: 24 July 2016 00:00
Search period end: 03 August 2016 00:00
Orbit: 936 x 959 km, 82.5° (Epoch: 23 July)

Date Brightness Start Highest point End Pass type
(mag) Time Alt. Az. Time Alt. Az. Time Alt. Az.
24 Jul 6.7 01:21:46 15° WNW 01:21:46 15° WNW 01:24:31 10° NW visible
24 Jul 4.9 23:54:23 55° N 23:54:23 55° N 23:59:05 10° N visible
25 Jul 6.1 22:26:57 16° ENE 22:26:57 16° ENE 22:29:26 10° NE visible
26 Jul 5.3 00:11:00 46° NW 00:11:00 46° NW 00:15:53 10° N visible
26 Jul 5.5 22:43:32 27° ENE 22:43:32 27° ENE 22:47:34 10° NNE visible
27 Jul 5.9 00:27:35 30° WNW 00:27:35 30° WNW 00:32:22 10° NNW visible
27 Jul 4.9 23:00:06 46° ENE 23:00:06 46° ENE 23:05:06 10° NNE visible
28 Jul 6.5 00:44:09 18° WNW 00:44:15 18° WNW 00:48:20 10° NNW visible
28 Jul 4.4 23:16:38 75° NE 23:16:38 75° NE 23:22:17 10° N visible
29 Jul 7.0 01:01:28 10° WNW 01:01:34 10° WNW 01:01:41 10° WNW visible
29 Jul 6.1 21:49:05 14° E 21:49:05 14° E 21:51:57 10° NE visible
29 Jul 4.7 23:33:07 61° W 23:33:09 61° W 23:39:12 10° N visible
30 Jul 5.5 22:05:32 24° E 22:05:43 24° E 22:10:28 10° NE visible
30 Jul 5.6 23:49:34 35° W 23:50:14 36° W 23:55:48 10° NNW visible
31 Jul 4.8 22:21:55 39° ESE 22:22:32 40° E 22:28:10 10° NNE visible
01 Aug 6.3 00:05:57 20° W 00:07:24 22° WNW 00:11:59 10° NNW visible
01 Aug 4.3 22:38:15 56° SSE 22:39:24 69° E 22:45:28 10° NNE visible
02 Aug 6.9 00:22:16 10° W 00:24:41 13° WNW 00:27:11 10° NW visible
02 Aug 6.2 21:10:43 10° E 21:12:21 11° E 21:13:58 10° ENE visible
02 Aug 4.5 22:54:30 46° SSW 22:56:22 73° W 23:02:28 10° N visible
